sat.trackr.live / text

‹ back to catalog

STARLINK-37269

NORAD 68621 · 2026-073V

PAYLOAD ACTIVE UNKNOWN

§ Identity

Operator
Country
US
Launch date
2026-04-07
Launch site
AFWTR
Launch vehicle
Mass (kg)
RCS (m²)

Purposes: comms

External: N2YO · Heavens-Above · Gunter

§ Orbital elements

Epoch: 2026-09-20T00:11:46.497120Z

Period
93.91 min
Inclination
97.2842°
Eccentricity
0.0001332
Mean motion
15.33445972 rev/d
Perigee alt
464.6 km
Apogee alt
466.5 km
Semi-major
6,843.7 km
B*
5.9483e-4
RAAN
101.0044°
Arg perigee
87.2851°
Mean anomaly
272.8544°
Rev number
2,566

§ Raw data

STARLINK-372691 68621U 26073V   26263.00817705  .00019178  00000+0  59483-3 0  99952 68621  97.2842 101.0044 0001332  87.2851 272.8544 15.33445972 25661

JSON: /api/v1/satellites/68621 · /tle

For live sub-satellite position, see the globe view (requires WebGL).

§ Visibility from observer

Set your observer location to see the next 7 days of passes ≥ 10°. The values pass through the URL so the page stays shareable.

No JS? Fill the form by hand. The geolocation button needs JavaScript.